This demonstration page uses our WeatherBlox Daily Observations layout. Learn more.

Left ArrowRight Arrow

Hourly Observations for January 12, 2021

Temp ( °F °C ) Dew Point ( °F °C ) Humidity (%) Winds ( mph kmh ) Pressure ( in mb ) Visibility ( mi km ) Precip ( " mm )
12:53 am 00:53 Clear 40 4.4 24 -4.4 53 53 SW 18 30 29.98 1015 10 16 0.00 0.00
1:53 am 01:53 Clear 39 3.9 24 -4.4 55 55 SW 14 22 29.99 1016 10 16 0.00 0.00
2:53 am 02:53 Clear 39 3.9 23 -5 53 53 SW 15 24 29.99 1016 10 16 0.00 0.00
3:53 am 03:53 Clear 39 3.9 24 -4.4 55 55 SW 15 24 29.97 1015 10 16 0.00 0.00
4:53 am 04:53 Clear 39 3.9 24 -4.4 55 55 SW 7 11 29.97 1015 10 16 0.00 0.00
5:53 am 05:53 Clear 36 2.2 23 -5 59 59 NW 5 7 29.97 1015 10 16 0.00 0.00
6:53 am 06:53 Clear 34 1.1 23 -5 64 64 S 10 17 29.94 1014 10 16 0.00 0.00
7:53 am 07:53 Mostly Cloudy 33 0.6 23 -5 66 66 SSW 6 9 29.92 1013 10 16 0.00 0.00
8:53 am 08:53 Sunny 32 0 22 -5.6 66 66 Calm 29.90 1013 10 16 0.00 0.00
9:53 am 09:53 Sunny 37 2.8 25 -3.9 62 62 Calm 29.88 1012 10 16 0.00 0.00
10:53 am 10:53 Sunny 40 4.4 26 -3.3 58 58 SE 3 6 29.84 1011 10 16 0.00 0.00
11:53 am 11:53 Sunny 50 10 25 -3.9 38 38 SW 9 15 29.77 1008 10 16 0.00 0.00
12:53 pm 12:53 Sunny 52 11.1 23 -5 32 32 WSW 17 28 29.73 1007 10 16 0.00 0.00
1:53 pm 13:53 Sunny 52 11.1 24 -4.4 34 34 SW 20 31 29.69 1005 10 16 0.00 0.00
2:53 pm 14:53 Sunny 52 11.1 27 -2.8 38 38 SW 20 31 29.67 1005 10 16 0.00 0.00
3:53 pm 15:53 Mostly Sunny 51 10.6 29 -1.7 43 43 WSW 23 37 29.71 1006 10 16 0.00 0.00
4:53 pm 16:53 Mostly Clear 51 10.6 30 -1.1 44 44 SW 22 35 29.71 1006 10 16 0.00 0.00
5:53 pm 17:53 Mostly Cloudy 50 10 31 -0.6 48 48 SW 21 33 29.71 1006 10 16 0.00 0.00
6:53 pm 18:53 Clear 48 8.9 32 0 54 54 SW 24 39 29.71 1006 10 16 0.00 0.00
7:53 pm 19:53 Clear 47 8.3 32 0 56 56 SW 21 33 29.72 1006 10 16 0.00 0.00
8:53 pm 20:53 Clear 47 8.3 33 0.6 59 59 SW 17 28 29.73 1007 10 16 0.00 0.00
9:53 pm 21:53 Clear 47 8.3 32 0 56 56 SW 21 33 29.73 1007 10 16 0.00 0.00
10:53 pm 22:53 Clear 46 7.8 32 0 58 58 SW 16 26 29.74 1007 10 16 0.00 0.00
11:53 pm 23:53 Clear 43 6.1 32 0 65 65 SW 14 22 29.72 1006 10 16 0.00 0.00

Powered by AerisWeather